Regional Weather Roundup
Issued by NWS Upton, NY

Current Version | Previous Version | Text Only | Print | Product List | Glossary Off
Versions: 1 2 3 4 5 6 7 8 9 10 11 12 13 14 15 16 17 18 19 20 21 22 23 24 25 26 27 28

000
ASUS41 KOKX 030404
RWROKX

REGIONAL WEATHER ROUNDUP
NATIONAL WEATHER SERVICE NEW YORK NY
1200 AM EDT TUE MAY 03 2016

NOTE: "FAIR" INDICATES FEW OR NO CLOUDS BELOW 12,000 FEET WITH NO
SIGNIFICANT WEATHER AND/OR OBSTRUCTIONS TO VISIBILITY.

NYZ071-072-176-178-NJZ106-104-030500-
NEW YORK CITY METRO AREA


CITY           SKY/WX    TMP DP  RH WIND       PRES   REMARKS
CENTRAL PARK   LGT RAIN  57  52  83 CALM      29.97R
LAGUARDIA APRT CLOUDY    57  50  77 S6        29.94R
KENNEDY INTL   LGT RAIN  53  50  89 S9        29.97R
NEWARK/LIBERTY LGT RAIN  54  53  97 S6        29.95R
BRNX BOT. GARD   N/A     54  52  94 S6        29.93S
TETERBORO      LGT RAIN  55  51  86 S5        29.93S
$$

NYZ177-179-078>081-030500-
LONG ISLAND NEW YORK

CITY           SKY/WX    TMP DP  RH WIND       PRES   REMARKS
FARMINGDALE    CLOUDY    51  49  92 S5        29.95R
ISLIP          CLOUDY    51  49  92 CALM      29.94S
SHIRLEY        CLOUDY    50  48  93 CALM      29.95S
RIVERHEAD        N/A     46  46 100 CALM      29.94F
WESTHAMPTON    MOCLDY    42  42 100 CALM      29.96F
EAST HAMPTON   FAIR      45  45  98 CALM      29.94F
MONTAUK POINT    N/A     50  48  93 CALM      29.96R
$$

NYZ052-065-067-030500-
HUDSON VALLEY

CITY           SKY/WX    TMP DP  RH WIND       PRES   REMARKS
WHITE PLAINS   CLOUDY    52  50  93 N3        29.92F FOG
NEWBURGH       MOCLDY    52  52 100 E9        29.95R
MONTGOMERY     CLOUDY    52  50  93 CALM      29.93F
POUGHKEEPSIE   CLOUDY    52  49  89 CALM      29.94R
ALBANY         CLOUDY    48  46  93 CALM      29.95R
$$

NJZ001-105-106-008-010-013-015-019>022-104-030500-
NEW JERSEY

CITY           SKY/WX    TMP DP  RH WIND       PRES   REMARKS
NEWARK/LIBERTY LGT RAIN  54  53  97 S6        29.95R
TETERBORO      LGT RAIN  55  51  86 S5        29.93S
CALDWELL       LGT RAIN  54  51  90 S3        29.93F
MORRISTOWN     RAIN      52  50  93 CALM      29.94S
SOMERVILLE     RAIN      53  52  96 SE3       29.91F FOG
SUSSEX         LGT RAIN  53  49  86 N3        29.93F
ANDOVER          N/A     54  51  90 CALM      29.93F
TRENTON        RAIN      56  54  93 E7        29.91F FOG
MILLVILLE      TSTM      55  54  96 VRB7      29.92R FOG
ATLANTIC CITY  LGT RAIN  54  53  97 SE5       29.93R
WRIGHTSTOWN    LGT RAIN  55  55 100 E2        29.91R
TOMS RIVER     CLOUDY    54  52  94 NE5       29.93S
BELMAR         LGT RAIN  52  52 100 E5        29.95S
$$

PAZ047>061-062-071-030500-
EASTERN PENNSYLVANIA

CITY           SKY/WX    TMP DP  RH WIND       PRES   REMARKS
PHILADELPHIA   TSTM      60  56  86 NE5       29.92S FOG
ALLENTOWN      HVY RAIN  57  54  89 N6        29.95R FOG
SCRANTON       LGT RAIN  51  45  79 N6        29.94F
$$

CTZ002-004>006-009-010-012-RIZ004-006-007-MAZ004-011-015-030500-
SOUTHERN NEW ENGLAND
 IN CT

CITY           SKY/WX    TMP DP  RH WIND       PRES   REMARKS
BRADLEY INTL   CLOUDY    48  47  96 W5        29.94R
HARTFORD       CLOUDY    52  48  86 CALM      29.96R
DANBURY        CLOUDY    49  47  93 CALM      29.96R
WTRBRY/OXFORD    N/A     48  45  87 CALM      29.96S
BRIDGEPORT     CLOUDY    52  49  89 CALM      29.95S FOG
MERIDEN        CLOUDY    49  46  90 CALM      29.96R
NEW HAVEN      MOCLDY    48  46  93 CALM      29.95R FOG
CHESTER        FAIR      48  48 100 CALM      29.95S FOG
GROTON         PTCLDY    47  47 100 CALM      29.94S
WILLIMANTIC    FOG       48  46  93 CALM      29.94R VSB 1/4

 IN RI

CITY           SKY/WX    TMP DP  RH WIND       PRES   REMARKS
PROVIDENCE     MOCLDY    50  46  86 NE7       29.95R
BLOCK ISLAND   MOCLDY    49  47  93 W5        29.95S
WESTERLY       PTCLDY    47  44  90 CALM      29.96R FOG

 IN MA

CITY           SKY/WX    TMP DP  RH WIND       PRES   REMARKS
BOSTON         CLOUDY    47  43  86 CALM      29.95S
WORCESTER      CLOUDY    45  44  97 NE3       29.92S
WESTFIELD      CLOUDY    46  44  93 CALM      29.94S
PROVINCETOWN   CLOUDY    45  43  93 NW7       29.94F
NANTUCKET      CLOUDY    50  46  86 N10       29.94R
$$

ANZ330-335-338-340-345-350-353-355-030500-
COASTAL MARINE OBSERVATIONS


STATION/POSITION TIME  SKY/WX   TEMP    WIND        PRES    VSBY  WAVE
                                AIR SEA DIR/SP/G                  HT/PER
                 (UTC)          (F)     (DEG/KT/KT) (MB)    (MI)  (FT/S)
NY HARB ENTRANCE 0250            51 51  160/  4/  6 1013.7          3/ 8
20S FIRE ISLAND  0250            50 49  150/  4/  4 1013.8          4/ 9
GREAT SOUTH BAY  0300            52 56  230/  4/  4   N/A
23 SSW MONTAUK P 0350            47 47  260/  2/  4 1013.7          4/ 7
15 E BARNEGAT LI 0322               52                N/A           4/ 9
HUDSON CANYON    0250            50 50              1013.9          4/ 9
KINGS POINT      0300            54 53              1013.5
EXECUTION ROCKS  NOT AVBL
CENTRAL LI SOUND 0300            49     130/  2/  4   N/A           0
EASTERN LI SOUND 0300            49 47  280/  4/  6   N/A
ROBBINS REEF     0300            54     180/  7/  8 1013.2
$$


>>>>>>>>>>>>>>>>>>>>>>>>>>>> KEY <<<<<<<<<<<<<<<<<<<<<<<<<<<
>                                                          <
>     SKY/WX - SKY CONDITION/PRESENT WEATHER               <
>     TMP    - TEMPERATURE IN FAHRENHEIT                   <
>     DP     - DEWPOINT IN FAHRENHEIT                      <
>     RH     - RELATIVE HUMIDITY IN PERCENT                <
>     WIND   - DIRECTION AND SPEED IN MPH                  <
>     PRES   - MEAN SEA LEVEL PRESSURE IN INCHES OF HG     <
>     WCI    - WIND CHILL INDEX                            <
>     VSB    - VISIBILITY IN MILES                         <
>     HX     - HEAT INDEX                                  <
>     TC     - TEMPERATURE IN CELSIUS                      <
>     VRB    - VARIABLE WIND DIRECTION                     <
>                                                          <
>>>>>>>>>>>>>>>>>>>>>>>>>>>> KEY <<<<<<<<<<<<<<<<<<<<<<<<<<<






USA.gov is the U.S. government's official web portal to all federal, state and local government web resources and services.